Regional Weather Roundup
Issued by NWS Cleveland, OH

Home | Current Version | Previous Version | Graphics & Text | Print | Product List | Glossary Off
Versions: 1 2 3 4 5 6 7 8 9 10 11 12 13 14 15 16 17 18 19 20 21 22 23 24 25 26 27 28 29 30 31 32 33 34 35 36 37 38 39 40 41 42 43 44 45 46 47 48 49 50

000
ASUS41 KCLE 251912
RWRCLE
OHIO REGIONAL WEATHER ROUNDUP
NATIONAL WEATHER SERVICE WILMINGTON, OH
300 PM EDT TUE JUL 25 2017

NOTE: "FAIR" INDICATES FEW OR NO CLOUDS BELOW 12,000 FEET WITH NO
SIGNIFICANT WEATHER AND/OR OBSTRUCTIONS TO VISIBILITY.

OHZ001>008-015>018-024>027-034-035-043-044-252000-
   NORTHWEST OHIO

CITY           SKY/WX    TMP DP  RH WIND       PRES   REMARKS
DEFIANCE       FAIR     N/A N/A N/A CALM      30.23R
FINDLAY        FAIR      77  56  48 E8        30.20F
TOLEDO EXPRESS FAIR      76  56  49 E7        30.21F
TOLEDO EXEC    FAIR      76  59  55 E7        30.23F
LIMA           FAIR      74  58  57 NE9       30.21F
$$

OHZ009>014-019>023-028>033-038-089-252000-
   NORTHEAST OHIO

CITY           SKY/WX    TMP DP  RH WIND       PRES   REMARKS
CLE-HOPKINS    PTSUNNY   75  60  59 N12       30.23F
CLE-LAKEFRONT  FAIR      73  58  59 N9        30.21S
CUY CO. ARPT   MOSUNNY   73  61  64 N14       30.22S
LORAIN-ELYRIA  FAIR      73  56  54 NE8       30.22F
ASHTABULA      FAIR      71  57  61 N8        30.23S
AKRON-CANTON   PTSUNNY   74  56  53 CALM      30.21S
WOOSTER        PTSUNNY   72  59  63 MISG      30.22F
MANSFIELD      PTSUNNY   72  59  63 N8        30.22F
YOUNGSTOWN     PTSUNNY   74  57  55 VRB6      30.21S
$$

OHZ042-051>053-060>062-070>072-077>081-252000-
  SOUTHWEST OHIO

CITY           SKY/WX    TMP DP  RH WIND       PRES   REMARKS
CINC-COVINGTON FAIR      80  59  48 E9        30.17F
CINC-LUNKEN    FAIR      79  60  52 NE8       30.17F
HAMILTON       FAIR      79  61  53 VRB3      30.19F
DAYTON         FAIR      75  59  57 NE8       30.21F
WRIGHT-PAT AFB FAIR      75  60  57 NE7       30.20F
DAYTON GENERAL FAIR      76  60  57 VRB3      30.19F
WILMINGTON     PTSUNNY   73  62  68 NE7       30.20F
$$

OHZ036-037-039>041-045>050-054>059-063>069-073>076-082>088-252000-
  CENTRAL AND SOUTHEAST OHIO

CITY           SKY/WX    TMP DP  RH WIND       PRES   REMARKS
COLUMBUS       PTSUNNY   75  60  59 E9        30.20F
OSU AIRPORT    FAIR      75  61  61 NE9       30.20F
BOLTON FIELD   PTSUNNY   75  61  60 CALM      30.21F
RICKENBACK AFB CLOUDY    73  59  61 E3        30.20F
NEWARK         CLOUDY    74  58  57 CALM      30.20F
MARION         FAIR      74  59  59 NE9       30.21F
LANCASTER      PTSUNNY   73  60  63 CALM      30.21F
ZANESVILLE     CLOUDY    72  59  63 NE3       30.22S
NEW PHILLY     CLOUDY    73  60  63 N6        30.22S
$$




USA.gov is the U.S. government's official web portal to all federal, state and local government web resources and services.